sat.trackr.live / text

‹ back to catalog

STARLINK-2140

NORAD 47730 · 2021-017J

PAYLOAD ACTIVE UNKNOWN

§ Identity

Operator
Country
US
Launch date
2021-03-04
Launch site
AFETR
Launch vehicle
Mass (kg)
RCS (m²)

Purposes: comms

External: N2YO · Heavens-Above · Gunter

§ Orbital elements

Epoch: 2026-05-25T04:50:00.857184Z

Period
94.01 min
Inclination
53.1591°
Eccentricity
0.0001097
Mean motion
15.31728479 rev/d
Perigee alt
469.9 km
Apogee alt
471.4 km
Semi-major
6,848.8 km
B*
1.8581e-4
RAAN
221.1094°
Arg perigee
83.1654°
Mean anomaly
276.9472°
Rev number
28,937

§ Raw data

STARLINK-21401 47730U 21017J   26145.20139881  .00005410  00000+0  18581-3 0  99972 47730  53.1591 221.1094 0001097  83.1654 276.9472 15.31728479289373

JSON: /api/v1/satellites/47730 · /tle

For live sub-satellite position, see the globe view (requires WebGL).

§ Visibility from observer

Set your observer location to see the next 7 days of passes ≥ 10°. The values pass through the URL so the page stays shareable.

No JS? Fill the form by hand. The geolocation button needs JavaScript.